TimeEDT,TemperatureF,Dew PointF,Humidity,Sea Level PressureIn,VisibilityMPH,Wind Direction,Wind SpeedMPH,Gust SpeedMPH,PrecipitationIn,Events,Conditions,WindDirDegrees,DateUTC
12:15 AM,53.6,44.6,72,29.72,10.0,Calm,Calm,-,N/A,,Clear,0,2012-10-20 04:15:00
12:35 AM,51.8,42.8,71,29.72,10.0,Calm,Calm,-,N/A,,Clear,0,2012-10-20 04:35:00
12:55 AM,51.8,42.8,71,29.72,10.0,Calm,Calm,-,N/A,,Clear,0,2012-10-20 04:55:00
1:15 AM,51.8,42.8,71,29.71,10.0,WSW,3.5,-,N/A,,Clear,240,2012-10-20 05:15:00
1:35 AM,53.6,39.2,58,29.70,10.0,WSW,6.9,-,N/A,,Clear,240,2012-10-20 05:35:00
1:55 AM,51.8,39.2,62,29.71,10.0,SW,4.6,-,N/A,,Clear,220,2012-10-20 05:55:00
2:15 AM,53.6,39.2,58,29.71,10.0,WSW,4.6,-,N/A,,Clear,240,2012-10-20 06:15:00
2:35 AM,53.6,39.2,58,29.71,10.0,WSW,3.5,-,N/A,,Clear,240,2012-10-20 06:35:00
2:55 AM,50.0,39.2,66,29.71,10.0,SSW,3.5,-,N/A,,Clear,200,2012-10-20 06:55:00
3:15 AM,51.8,39.2,62,29.71,10.0,SSW,3.5,-,N/A,,Clear,210,2012-10-20 07:15:00
3:35 AM,51.8,39.2,62,29.71,10.0,SW,4.6,-,N/A,,Clear,230,2012-10-20 07:35:00
3:55 AM,50.0,39.2,66,29.72,10.0,SW,3.5,-,N/A,,Clear,230,2012-10-20 07:55:00
4:15 AM,50.0,39.2,66,29.72,10.0,SW,3.5,-,N/A,,Clear,230,2012-10-20 08:15:00
4:35 AM,48.2,39.2,71,29.73,10.0,SW,3.5,-,N/A,,Clear,220,2012-10-20 08:35:00
4:55 AM,50.0,39.2,66,29.73,10.0,SW,3.5,-,N/A,,Clear,230,2012-10-20 08:55:00
5:15 AM,50.0,39.2,66,29.73,10.0,Calm,Calm,-,N/A,,Clear,0,2012-10-20 09:15:00
5:35 AM,46.4,39.2,76,29.74,10.0,Calm,Calm,-,N/A,,Clear,0,2012-10-20 09:35:00
5:55 AM,46.4,39.2,76,29.75,10.0,SW,5.8,-,N/A,,Clear,220,2012-10-20 09:55:00
6:15 AM,48.2,39.2,71,29.76,10.0,SW,4.6,-,N/A,,Clear,230,2012-10-20 10:15:00
6:35 AM,46.4,39.2,76,29.76,10.0,Calm,Calm,-,N/A,,Clear,0,2012-10-20 10:35:00
6:55 AM,44.6,42.8,93,29.76,10.0,Calm,Calm,-,N/A,,Clear,0,2012-10-20 10:55:00
7:15 AM,44.6,42.8,93,29.76,10.0,Calm,Calm,-,N/A,,Clear,0,2012-10-20 11:15:00
7:35 AM,44.6,42.8,93,29.77,10.0,Calm,Calm,-,N/A,,Clear,0,2012-10-20 11:35:00
7:55 AM,44.6,42.8,93,29.78,10.0,Calm,Calm,-,N/A,,Clear,0,2012-10-20 11:55:00
8:15 AM,46.4,44.6,93,29.78,10.0,Calm,Calm,-,N/A,,Clear,0,2012-10-20 12:15:00
8:35 AM,48.2,44.6,87,29.79,10.0,Calm,Calm,-,N/A,,Clear,0,2012-10-20 12:35:00
8:55 AM,51.8,44.6,76,29.80,10.0,Calm,Calm,-,N/A,,Clear,0,2012-10-20 12:55:00
9:15 AM,53.6,42.8,67,29.80,10.0,Calm,Calm,-,N/A,,Clear,0,2012-10-20 13:15:00
9:35 AM,55.4,42.8,63,29.80,10.0,SW,3.5,-,N/A,,Clear,230,2012-10-20 13:35:00
9:55 AM,59.0,42.8,55,29.81,10.0,Calm,Calm,-,N/A,,Clear,0,2012-10-20 13:55:00
10:15 AM,60.8,42.8,52,29.81,10.0,Calm,Calm,-,N/A,,Clear,0,2012-10-20 14:15:00
10:35 AM,62.6,39.2,42,29.81,10.0,WSW,5.8,-,N/A,,Clear,250,2012-10-20 14:35:00
10:55 AM,64.4,37.4,37,29.81,10.0,NW,6.9,-,N/A,,Clear,310,2012-10-20 14:55:00
11:15 AM,64.4,37.4,37,29.80,10.0,WSW,5.8,-,N/A,,Clear,250,2012-10-20 15:15:00
11:35 AM,64.4,35.6,34,29.80,10.0,WNW,4.6,-,N/A,,Clear,290,2012-10-20 15:35:00
11:55 AM,66.2,35.6,32,29.80,10.0,SW,6.9,-,N/A,,Clear,230,2012-10-20 15:55:00
12:15 PM,66.2,37.4,35,29.80,10.0,SW,5.8,-,N/A,,Clear,220,2012-10-20 16:15:00
12:35 PM,66.2,35.6,32,29.79,10.0,WNW,5.8,-,N/A,,Clear,300,2012-10-20 16:35:00
12:55 PM,66.2,35.6,32,29.79,10.0,West,3.5,-,N/A,,Clear,270,2012-10-20 16:55:00
1:15 PM,66.2,35.6,32,29.78,10.0,West,4.6,-,N/A,,Clear,260,2012-10-20 17:15:00
1:35 PM,66.2,35.6,32,29.77,10.0,West,6.9,-,N/A,,Clear,280,2012-10-20 17:35:00
1:55 PM,68.0,35.6,30,29.77,10.0,West,8.1,-,N/A,,Scattered Clouds,260,2012-10-20 17:55:00
2:15 PM,69.8,35.6,28,29.77,10.0,WSW,8.1,-,N/A,,Scattered Clouds,240,2012-10-20 18:15:00
2:35 PM,68.0,33.8,28,29.77,10.0,WSW,6.9,-,N/A,,Scattered Clouds,240,2012-10-20 18:35:00
2:55 PM,69.8,33.8,27,29.77,10.0,WSW,10.4,-,N/A,,Scattered Clouds,240,2012-10-20 18:55:00
3:15 PM,69.8,32.0,25,29.78,10.0,West,11.5,16.1,N/A,,Scattered Clouds,260,2012-10-20 19:15:00
3:35 PM,69.8,32.0,25,29.78,10.0,WSW,5.8,-,N/A,,Clear,240,2012-10-20 19:35:00
3:55 PM,69.8,32.0,25,29.78,10.0,WSW,10.4,-,N/A,,Clear,240,2012-10-20 19:55:00
4:15 PM,69.8,30.2,23,29.79,10.0,West,8.1,16.1,N/A,,Clear,260,2012-10-20 20:15:00
4:35 PM,68.0,30.2,24,29.80,10.0,West,6.9,-,N/A,,Clear,260,2012-10-20 20:35:00
4:55 PM,68.0,30.2,24,29.81,10.0,WSW,4.6,-,N/A,,Clear,250,2012-10-20 20:55:00
5:15 PM,66.2,32.0,28,29.81,10.0,WNW,3.5,-,N/A,,Clear,290,2012-10-20 21:15:00
5:35 PM,66.2,32.0,28,29.82,10.0,WNW,3.5,-,N/A,,Clear,290,2012-10-20 21:35:00
5:55 PM,64.4,30.2,28,29.83,10.0,WNW,3.5,-,N/A,,Clear,300,2012-10-20 21:55:00
6:15 PM,62.6,33.8,34,29.83,10.0,Calm,Calm,-,N/A,,Clear,0,2012-10-20 22:15:00
6:35 PM,62.6,33.8,34,29.84,10.0,West,3.5,-,N/A,,Clear,270,2012-10-20 22:35:00
6:55 PM,60.8,33.8,36,29.86,10.0,WNW,4.6,-,N/A,,Clear,290,2012-10-20 22:55:00
7:15 PM,60.8,32.0,34,29.86,10.0,WNW,3.5,-,N/A,,Clear,300,2012-10-20 23:15:00
7:35 PM,60.8,32.0,34,29.87,10.0,WNW,3.5,-,N/A,,Clear,300,2012-10-20 23:35:00
7:55 PM,59.0,32.0,36,29.88,10.0,WNW,3.5,-,N/A,,Clear,300,2012-10-20 23:55:00
8:15 PM,59.0,32.0,36,29.89,10.0,NW,3.5,-,N/A,,Clear,320,2012-10-21 00:15:00
8:35 PM,57.2,30.2,36,29.89,10.0,WNW,4.6,-,N/A,,Clear,290,2012-10-21 00:35:00
8:55 PM,57.2,30.2,36,29.89,10.0,WNW,4.6,-,N/A,,Clear,290,2012-10-21 00:55:00
9:15 PM,57.2,30.2,36,29.90,10.0,Calm,Calm,-,N/A,,Clear,0,2012-10-21 01:15:00
9:35 PM,55.4,30.2,38,29.91,10.0,Calm,Calm,-,N/A,,Clear,0,2012-10-21 01:35:00
9:55 PM,53.6,32.0,44,29.91,10.0,Calm,Calm,-,N/A,,Clear,0,2012-10-21 01:55:00
10:15 PM,51.8,33.8,50,29.92,10.0,Calm,Calm,-,N/A,,Clear,0,2012-10-21 02:15:00
10:35 PM,51.8,35.6,54,29.92,10.0,Calm,Calm,-,N/A,,Clear,0,2012-10-21 02:35:00
10:55 PM,51.8,35.6,54,29.93,10.0,Calm,Calm,-,N/A,,Clear,0,2012-10-21 02:55:00
11:15 PM,48.2,37.4,66,29.93,10.0,Calm,Calm,-,N/A,,Clear,0,2012-10-21 03:15:00
11:35 PM,51.8,33.8,50,29.94,10.0,Calm,Calm,-,N/A,,Clear,0,2012-10-21 03:35:00
11:55 PM,46.4,37.4,71,29.94,10.0,Calm,Calm,-,N/A,,Clear,0,2012-10-21 03:55:00